Probability
0 0 0 0 0 0 0 0 0 0 0 0 0 0 0 0 0 0 0 0 0 0 0 0 0 0 0 0 0 0 0 0 0 0 0 0 0 0 0 0 0 0 0 0
0 0 0 0 0 0 0 0 0 0 0 0 0 0 0 0 0 0 0 0 0 0 0 0 0 0 0 0 0 0 0 0 0 0 0 0 0 0 0 0 0 0 0 0
0 0 0 0 0 0 0 0 0 0 0 0 0 0 0 0 0 0 0 0 0 0 0 0 0 0 0 0 0 0 0 0 0 0 0 0 0 0 0 0 0 0 0 0
0 0 0 0 0 0 0 0 0 0 0 0 0 0 0 0 0 0 0 0 0 0 0 0 0 0 0 0 0 0 0 0 0 0 0 0 0 0 0 0 0 0 0 0
0 0 0 0 0 0 0 0 0 0 0 0 0 0 0 0 0 0 0 0 0 0 0 0 0 0 0 0 0 0 0 0 0 0 0 0 0 0 0 0 0 0 0 0
0 0 0 0 0 0 0 0 0 0 0 0 0 0 0 0 0 0 0 0 0 0 0 0 0 0 0 0 0 0 0 0 0 0 0 0 0 0 0 0 0 0 0 0
0 0 0 0 0 0 0 0 0 0 0 0 0 0 0 0 0 0 0 0 0 0 0 0 0 0 0 0 0 0 0 0 0 0 0 0 0 0 0 0 0 0 0 0
0 0 0 0 0 0 0 0 0 0 0 0 0 0 0 0 0 0 0 0 0 0 0 0 0 0 0 0 0 0 0 0 0 0 0 0 0 0 0 0 0 0 0 0
0 0 0 0 0 0 0 0 0 0 0 0 0 0 0 0 0 0 0 0 0 0 0 0 0 0 0 0 0 0 0 0 0 0 0 0 0 0 0 0 0 0 0 0
0 0 0 0 0 0 0 0 0 0 0 0 0 0 0 0 0 0 0 0 0 0 0 0 0 0 0 0 0 0 0 0 0 0 0 0 0 0 0 0 0 0 0 0
0 0 0 0 0 0 0 0 0 0 0 0 0 0 0 0 0 0 0 0 0 0 0 0 0 0 0 0 0 0 0 0 0 0 0 0 0 0 0 0 0 0 0 0
0 0 0 0 0 0 0 0 0 0 0 0 0 0 0 0 0 0 0 0 0 0 0 0 0 0 0 0 0 0 0 0 0 0 0 0 0 0 0 0 0 0 0 0
0 0 0 0 0 0 0 0 0 0 0 0 0 0 0 0 0 0 0 0 0 0 0 0 0 0 0 0 0 0 0 0 0 0 0 0 0 0 0 0 0 0 0 0
0 0 0 0 0 0 0 0 0 0 0 0 0 0 0 0 0 0 0 0 0 0 0 0 0 0 0 0 0 0 0 0 0 0 0 0 0 0 0 0 0 0 0 0
0 0 0 0 0 0 0 0 0 0 0 0 0 0 0 0 0 0 0 0 0 0 0 0 0 0 0 0 0 0 0 0 0 0 0 0 0 0 0 0 0 0 0 0
0 0 0 0 0 0 0 0 0 0 0 0 0 0 0 0 0 0 0 0 0 0 0 0 0 0 0 0 0 0 0 0 0 0 0 0 0 0 0 0 0 0 0 0
0 0 0 0 0 0 0 0 0 0 0 0 0 0 0 0 0 0 0 0 0 0 0 0 0 0 0 0 0 0 0 0 0 0 0 0 0 0 0 0 0 0 0 0
0 0 0 0 0 0 0 0 0 0 0 0 0 0 0 0 0 0 0 0 0 0 0 0 0 0 0 0 0 0 0 0 0 0 0 0 0 0 0 0 0 0 0 0
0 0 0 0 0 0 0 0 0 0 0 0 0 0 0 0 0 0 0 0 0 0 0 0 0 0 0 0 0 0 0 0 0 0 0 0 0 0 0 0 0 0 0 0
0 0 0 0 0 0 0 0 0 0 0 0 0 0 0 0 0 0 0 0 0 0 0 0 0 0 0 0 0 0 0 0 0 0 0 0 0 0 0 0 0 0 0 0
0 0 0 0 0 0 0 0 0 0 0 0 0 0 0 0 0 0 0 0 0 0 0 0 0 0 0 0 0 0 0 0 0 0 0 0 0 0 0 0 0 0 0 0
0 0 0 0 0 0 0 0 0 0 0 0 0 0 0 0 0 0 0 0 0 0 0 0 0 0 0 0 0 0 0 0 0 0 0 0 0 0 0 0 0 0 0 0
0 0 0 0 0 0 0 0 0 0 0 0 0 0 0 0 0 0 0 0 0 0 0 0 0 0 0 0 0 0 0 0 0 0 0 0 0 0 0 0 0 0 0 0
0 0 0 0 0 0 0 0 0 0 0 0 0 0 0 0 0 0 0 0 0 0 0 0 0 0 0 0 0 0 0 0 0 0 0 0 0 0 0 0 0 0 0 0
0 0 0 0 0 0 0 0 0 0 0 0 0 0 0 0 0 0 0 0 0 0 0 0 0 0 0 0 0 0 0 0 0 0 0 0 0 0 0 0 0 0 0 0
0 0 0 0 0 0 0 0 0 0 0 0 0 0 0 0 0 0 0 0 0 0 0 0 0 0 0 0 0 0 0 0 0 0 0 0 0 0 0 0 0 0 0 0
0 0 0 0 0 0 0 0 0 0 0 0 0 0 0 0 0 0 0 0 0 0 0 0 0 0 0 0 0 0 0 0 0 0 0 0 0 0 0 0 0 0 0 0
Height
5736 5737 5738 5739 5740 5741 5740 5740 5739 5740 5740 5740 5735 5733 5732 5730 5728 5725 5723 5720 5717 5714 5711 5708 5705 5701 5698 5693 5689 5684 5679 5674 5668 5662 5655 5649 5641 5633 5625 5617 5607 5598 5588 5578
5727 5728 5729 5729 5732 5732 5732 5731 5730 5729 5730 5730 5726 5724 5722 5720 5717 5715 5712 5709 5706 5703 5700 5697 5693 5690 5686 5681 5676 5671 5666 5660 5654 5647 5640 5633 5625 5616 5607 5598 5588 5578 5568 5557
5718 5719 5718 5720 5725 5723 5722 5722 5721 5720 5721 5718 5717 5714 5712 5709 5707 5704 5701 5698 5695 5692 5689 5686 5682 5678 5674 5669 5664 5658 5652 5646 5639 5632 5624 5616 5608 5598 5589 5579 5569 5559 5547 5536
5707 5709 5708 5714 5714 5714 5712 5712 5711 5710 5709 5707 5705 5703 5701 5699 5696 5693 5690 5687 5684 5681 5677 5674 5670 5666 5661 5656 5650 5644 5638 5631 5624 5616 5608 5599 5590 5580 5570 5560 5549 5538 5527 5515
5697 5696 5697 5702 5704 5703 5701 5702 5702 5699 5697 5695 5693 5691 5689 5687 5684 5681 5679 5676 5672 5669 5665 5661 5657 5653 5648 5642 5636 5630 5623 5615 5607 5599 5590 5581 5572 5562 5551 5541 5530 5518 5506 5494
5686 5686 5687 5692 5693 5691 5691 5691 5692 5688 5686 5684 5682 5680 5678 5675 5672 5670 5667 5664 5660 5657 5653 5649 5644 5640 5634 5628 5622 5615 5608 5600 5591 5582 5572 5563 5553 5542 5532 5520 5509 5498 5487 5474
5676 5674 5676 5680 5680 5679 5680 5680 5678 5676 5675 5673 5671 5669 5666 5663 5660 5658 5655 5652 5648 5644 5640 5636 5631 5626 5620 5614 5607 5599 5592 5583 5574 5564 5554 5544 5534 5523 5512 5501 5490 5479 5468 5457
5665 5664 5668 5669 5668 5668 5667 5666 5665 5663 5662 5661 5659 5656 5654 5651 5648 5645 5642 5639 5636 5631 5627 5622 5617 5611 5605 5599 5592 5584 5576 5567 5557 5547 5536 5526 5515 5504 5492 5480 5470 5459 5449 5440
5655 5657 5657 5657 5656 5655 5655 5654 5653 5651 5650 5648 5646 5644 5642 5639 5636 5633 5630 5626 5623 5618 5614 5608 5602 5596 5590 5583 5575 5567 5559 5549 5539 5529 5518 5507 5496 5485 5474 5461 5450 5441 5431 5423
5643 5645 5645 5644 5644 5643 5642 5642 5640 5639 5638 5636 5634 5631 5629 5627 5624 5621 5617 5613 5609 5605 5600 5594 5588 5581 5574 5566 5559 5550 5541 5532 5522 5512 5501 5490 5478 5466 5455 5443 5433 5423 5415 5407
5631 5633 5633 5633 5632 5632 5631 5630 5628 5627 5625 5623 5621 5619 5617 5614 5611 5608 5604 5600 5596 5591 5586 5580 5573 5566 5558 5550 5542 5533 5524 5514 5504 5493 5483 5472 5461 5449 5438 5427 5414 5406 5399 5391
5620 5621 5621 5621 5620 5619 5619 5617 5616 5615 5613 5611 5609 5607 5604 5601 5598 5595 5591 5587 5582 5577 5571 5565 5558 5550 5541 5533 5524 5515 5506 5496 5486 5475 5464 5454 5444 5435 5423 5412 5403 5392 5384 5377
5607 5608 5608 5608 5608 5607 5606 5605 5604 5602 5601 5599 5596 5594 5591 5589 5585 5582 5577 5573 5568 5562 5556 5549 5541 5533 5524 5516 5507 5497 5487 5477 5467 5456 5446 5435 5425 5416 5409 5401 5391 5382 5373 5366
5595 5595 5595 5595 5595 5594 5594 5593 5591 5590 5588 5586 5584 5582 5579 5576 5572 5568 5563 5558 5553 5547 5540 5532 5525 5516 5507 5498 5489 5479 5469 5458 5448 5438 5428 5418 5408 5399 5391 5385 5379 5372 5364 5356
5582 5583 5583 5583 5583 5582 5581 5580 5579 5578 5576 5574 5572 5569 5566 5563 5559 5554 5549 5543 5538 5531 5523 5516 5508 5499 5489 5480 5471 5461 5451 5440 5430 5421 5411 5402 5393 5385 5377 5370 5364 5359 5353 5347
5570 5571 5571 5571 5571 5570 5569 5569 5567 5566 5564 5562 5560 5557 5553 5550 5545 5540 5534 5528 5522 5515 5507 5498 5490 5481 5472 5462 5453 5443 5434 5423 5413 5404 5395 5386 5378 5371 5364 5358 5352 5346 5341 5335
5559 5560 5560 5560 5560 5559 5558 5557 5556 5555 5553 5550 5547 5544 5540 5536 5531 5526 5519 5513 5505 5498 5489 5480 5472 5463 5453 5443 5434 5425 5416 5407 5397 5388 5380 5372 5365 5358 5352 5346 5341 5336 5331 5325
5549 5550 5550 5550 5549 5549 5548 5546 5545 5543 5540 5538 5534 5530 5526 5521 5516 5511 5504 5497 5489 5481 5472 5462 5454 5445 5435 5425 5416 5407 5398 5390 5382 5374 5366 5359 5353 5347 5341 5336 5330 5325 5321 5316
5539 5540 5540 5539 5539 5538 5537 5535 5533 5531 5528 5525 5521 5517 5512 5506 5500 5494 5488 5480 5472 5464 5456 5446 5436 5427 5418 5408 5398 5390 5382 5374 5367 5360 5353 5347 5341 5336 5331 5326 5321 5316 5311 5307
5530 5530 5530 5529 5528 5527 5525 5523 5521 5518 5514 5511 5507 5502 5497 5491 5484 5477 5471 5463 5453 5444 5437 5428 5419 5410 5401 5392 5382 5374 5367 5359 5353 5347 5341 5336 5331 5326 5321 5316 5311 5307 5303 5299
5520 5520 5519 5518 5517 5515 5513 5511 5508 5505 5501 5496 5491 5486 5481 5474 5467 5460 5452 5446 5437 5426 5418 5410 5400 5392 5383 5375 5367 5359 5352 5346 5340 5334 5329 5325 5320 5316 5312 5307 5303 5299 5295 5291
5510 5509 5508 5507 5505 5503 5500 5497 5494 5490 5486 5481 5475 5469 5463 5457 5449 5442 5434 5425 5418 5409 5400 5392 5384 5375 5367 5359 5352 5345 5339 5333 5328 5323 5318 5314 5310 5307 5303 5299 5295 5291 5287 5283
5499 5498 5497 5495 5493 5490 5487 5483 5479 5475 5470 5464 5458 5451 5444 5438 5430 5423 5417 5409 5399 5391 5383 5375 5367 5359 5351 5344 5337 5331 5326 5320 5316 5312 5308 5304 5301 5297 5294 5290 5287 5283 5279 5276
5488 5486 5484 5482 5479 5476 5472 5468 5463 5458 5453 5447 5440 5432 5425 5419 5412 5404 5395 5389 5381 5372 5365 5358 5350 5343 5336 5329 5323 5318 5313 5309 5305 5301 5298 5295 5292 5289 5286 5282 5279 5275 5272 5268
5475 5473 5470 5467 5464 5460 5456 5452 5447 5441 5435 5429 5423 5414 5406 5398 5392 5386 5378 5370 5363 5355 5349 5342 5335 5328 5321 5316 5310 5306 5302 5298 5294 5292 5289 5286 5283 5281 5278 5274 5271 5268 5265 5262
5461 5458 5455 5451 5447 5443 5439 5434 5429 5423 5417 5411 5405 5396 5388 5380 5373 5366 5359 5353 5346 5339 5332 5326 5320 5314 5308 5303 5299 5295 5291 5288 5285 5282 5280 5278 5275 5273 5270 5267 5264 5261 5258 5255
5445 5442 5439 5435 5430 5425 5421 5415 5410 5404 5397 5391 5385 5378 5370 5362 5355 5348 5342 5336 5329 5323 5317 5311 5306 5301 5296 5292 5288 5284 5281 5279 5276 5274 5272 5270 5268 5266 5263 5260 5257 5254 5251 5248
Wind_Speed
33 33 34 33 33 32 33 34 36 34 33 32 36 38 38 39 39 40 41 41 40 41 41 42 43 44 45 47 48 50 52 54 57 59 62 64 67 69 72 74 76 78 80 81
36 35 36 36 35 34 34 35 36 37 36 35 38 39 40 41 42 42 42 42 42 42 43 43 45 46 47 49 51 53 55 57 60 62 64 67 70 73 75 77 78 80 82 83
39 37 39 39 34 35 37 36 37 39 38 39 39 40 42 43 43 42 42 42 43 43 44 45 46 48 50 52 54 56 58 60 63 65 67 70 73 75 77 78 80 81 83 84
41 40 43 39 36 35 37 37 38 40 40 41 42 43 43 42 42 42 43 43 44 45 46 47 48 50 52 54 56 58 60 63 65 68 70 73 75 77 79 80 81 83 83 84
43 44 44 41 38 37 39 39 38 40 41 42 42 43 42 42 42 42 43 43 44 45 47 48 50 51 53 56 58 60 62 65 68 70 73 75 77 78 80 81 82 83 83 82
44 45 46 43 40 39 41 41 38 40 40 41 41 42 42 42 42 42 43 43 45 46 48 49 51 53 55 57 60 62 65 67 70 72 75 77 78 80 81 82 83 82 80 77
44 46 46 44 42 41 41 41 40 40 40 41 42 42 41 41 41 42 43 44 46 47 49 51 53 55 57 59 62 65 67 69 72 74 76 78 79 80 82 82 82 80 77 73
44 46 45 42 43 42 43 43 42 42 41 41 41 41 41 41 42 43 44 45 47 48 50 53 55 57 59 62 64 67 69 71 73 75 77 78 80 81 81 81 79 75 72 67
44 44 43 43 44 44 44 44 43 42 42 42 41 41 41 42 43 44 45 46 48 50 52 54 57 59 61 64 67 69 71 73 75 76 77 79 80 80 79 77 75 71 67 62
43 42 42 43 43 43 44 44 44 43 43 43 43 42 42 43 44 45 46 47 49 51 53 55 58 61 64 67 69 71 72 74 75 77 78 79 79 78 76 73 70 66 62 58
42 41 42 43 44 44 45 44 44 44 43 43 42 42 43 44 45 46 47 49 51 53 55 57 60 63 66 69 71 72 73 75 76 78 79 78 77 75 72 68 65 61 57 55
43 43 44 44 45 45 45 44 44 43 43 43 43 43 44 45 46 47 49 51 53 55 57 60 63 65 68 70 72 73 75 76 78 78 78 77 75 71 66 63 59 56 54 52
42 43 44 44 44 44 44 44 44 43 43 43 43 44 45 46 47 48 50 53 55 57 60 63 65 67 69 71 73 75 77 78 78 77 76 74 71 67 62 57 53 51 49 48
43 44 44 44 44 44 44 44 44 44 43 43 43 44 45 46 48 50 52 55 57 60 62 65 67 69 71 73 75 76 77 77 77 75 74 71 67 63 58 53 48 45 45 44
42 42 42 43 43 43 43 43 43 42 42 42 43 44 46 47 50 52 55 57 60 62 64 66 69 71 73 74 76 77 77 76 75 72 69 66 62 57 53 50 46 43 42 40
40 40 40 40 40 40 40 40 40 40 41 42 44 45 47 49 52 54 57 59 62 64 66 68 70 72 74 75 76 76 75 74 72 68 64 60 56 53 49 47 44 42 40 38
37 37 37 37 37 37 38 38 39 40 42 44 45 47 49 51 53 56 59 61 64 66 68 71 72 74 75 76 76 74 73 70 67 63 59 55 52 48 46 44 42 40 38 36
34 34 34 34 35 36 37 39 40 42 43 45 47 49 51 53 56 58 61 63 65 68 70 72 74 74 74 74 74 72 69 65 61 57 53 50 47 45 43 42 40 38 35 34
32 33 34 34 35 37 38 39 41 42 44 46 48 51 53 56 59 61 64 66 68 70 71 72 73 73 73 72 70 67 64 61 57 52 49 45 43 42 41 40 38 36 34 32
32 33 34 35 36 37 38 40 42 44 46 48 51 53 56 59 62 64 66 68 70 72 72 72 72 71 70 68 66 63 60 56 52 48 44 42 40 39 38 37 35 34 32 31
32 33 34 35 37 39 40 42 44 46 49 51 54 56 59 62 65 67 69 70 70 72 71 71 70 68 67 65 62 58 54 51 47 44 41 39 37 36 35 34 33 32 31 30
33 34 36 37 39 41 43 45 47 49 52 55 57 60 63 65 67 69 70 71 71 70 70 68 67 65 64 61 58 53 49 46 43 40 38 36 35 33 33 32 31 31 29 28
34 36 38 39 41 43 46 48 51 53 56 58 61 64 67 68 70 70 69 69 70 69 67 65 64 62 60 57 53 49 45 42 40 37 35 34 32 31 30 30 30 29 28 27
37 39 41 43 45 47 49 52 55 57 59 62 65 67 69 70 69 70 70 69 67 66 64 62 60 58 55 52 48 45 42 39 36 34 33 31 30 29 29 29 28 28 26 25
41 43 45 47 49 52 54 56 58 61 63 65 66 68 69 69 69 68 67 66 64 62 60 58 56 54 51 48 44 41 38 36 33 32 30 29 28 27 27 27 27 26 25 24
45 47 50 52 54 56 58 60 62 63 65 66 66 67 68 68 68 66 64 62 60 58 56 53 51 49 46 43 40 37 35 32 30 29 28 27 26 25 26 26 26 25 24 23
50 51 53 55 58 60 61 63 64 65 66 67 66 66 66 65 64 62 61 58 56 53 50 48 46 44 42 39 36 34 32 29 27 26 26 25 24 24 25 25 24 23 22 22
Wind_Direction
255 259 262 263 264 266 269 273 275 277 278 280 280 283 285 287 288 289 290 290 289 289 289 288 289 290 291 292 294 295 297 298 299 301 302 303 304 305 305 305 306 306 306 306
258 260 263 264 266 269 270 272 275 276 279 280 280 283 285 286 288 288 288 288 288 288 289 289 289 291 292 294 295 296 298 299 300 302 303 304 305 305 306 306 307 307 307 307
259 261 264 266 270 271 272 273 274 277 280 280 281 283 285 286 287 288 287 287 287 288 288 289 290 291 293 294 296 297 299 300 301 302 304 305 306 306 307 307 307 308 308 308
261 263 264 270 270 272 274 274 276 278 280 280 282 284 285 285 286 286 286 286 287 287 288 289 290 292 293 295 296 298 299 301 302 304 305 306 306 307 307 308 308 309 309 310
261 265 267 269 273 275 274 275 277 278 279 281 283 285 285 285 284 284 285 286 286 287 288 289 291 292 294 296 297 299 300 302 304 305 306 306 307 308 308 309 309 310 311 310
262 266 269 272 273 274 276 278 279 279 281 283 284 285 285 284 284 284 285 285 286 287 288 290 292 294 295 297 298 300 302 303 305 306 307 307 308 309 309 310 311 311 311 311
263 267 270 275 278 278 279 281 281 282 283 284 285 285 285 284 283 284 285 286 287 288 289 291 293 295 296 298 300 301 303 305 306 307 307 308 309 310 311 311 312 312 311 311
263 267 272 276 277 278 280 282 283 284 284 285 285 284 283 283 283 284 285 286 288 289 291 293 295 296 298 300 301 303 305 306 307 307 308 309 310 311 312 312 312 312 311 310
264 268 272 274 276 278 280 282 283 284 285 285 285 283 282 282 283 285 286 287 289 290 292 294 296 298 300 301 303 304 306 307 307 308 309 310 312 312 313 312 312 311 311 310
266 269 271 273 275 278 280 281 282 283 284 284 283 283 282 283 285 286 287 288 290 292 294 296 298 300 301 302 304 305 306 307 308 309 310 312 313 313 313 312 311 311 310 309
267 269 271 273 276 278 279 280 281 282 283 283 283 283 283 284 285 286 288 290 292 294 296 297 299 301 302 304 305 306 307 308 309 310 311 312 313 313 313 312 311 310 309 308
267 269 271 273 275 277 278 279 280 281 282 282 283 283 284 284 286 288 290 292 294 296 297 299 301 302 304 305 306 307 308 309 310 311 312 313 313 313 312 311 310 309 309 309
268 270 272 273 274 276 277 278 279 280 281 282 282 283 284 285 288 290 292 294 296 297 299 301 302 304 305 306 307 308 309 310 311 312 312 313 313 312 311 310 309 308 308 308
268 270 271 272 272 274 275 276 278 279 280 281 282 283 285 288 290 292 294 296 298 299 301 302 304 305 306 307 308 310 310 311 312 312 312 312 312 312 311 310 308 307 307 307
266 268 269 270 271 273 274 276 277 278 279 281 283 285 287 289 292 294 296 298 300 301 302 304 305 306 307 308 309 310 311 311 312 312 312 311 311 311 310 310 309 308 308 307
265 267 268 270 271 272 274 275 277 279 281 282 284 287 289 292 294 296 298 300 301 303 304 305 306 307 308 309 310 310 311 311 311 311 311 310 310 310 309 309 309 309 309 307
265 267 268 270 271 273 275 277 278 280 282 285 287 290 292 294 296 298 300 302 303 305 305 306 307 308 309 309 310 310 311 311 311 310 309 309 309 308 308 308 309 309 308 307
265 267 269 271 273 275 277 278 281 283 285 288 290 292 294 296 298 300 302 303 304 305 306 307 308 308 309 309 310 310 310 310 310 309 308 307 307 307 308 308 309 308 308 307
267 269 271 273 274 276 279 281 284 286 289 291 293 295 297 299 300 302 303 304 305 305 306 307 307 308 309 309 309 310 310 309 308 307 306 306 306 306 307 308 308 307 307 307
269 271 273 275 277 280 282 285 287 289 292 294 296 298 299 301 302 303 304 305 306 306 306 307 307 308 308 309 309 309 308 308 307 306 305 305 305 305 306 306 306 306 307 307
272 274 276 278 281 283 286 288 290 292 294 296 298 299 301 302 303 304 305 305 306 306 307 307 307 308 308 308 308 308 307 306 305 304 303 303 303 304 305 305 305 306 306 307
274 277 279 282 285 287 289 291 293 295 297 298 300 301 302 303 304 304 305 305 306 306 306 307 307 307 307 308 307 306 305 304 303 302 301 301 302 302 303 304 305 305 306 306
278 281 283 286 288 290 292 294 295 297 298 300 301 302 302 303 304 304 305 305 305 305 305 306 306 306 307 307 306 304 303 302 301 300 300 300 300 301 302 304 305 305 305 305
282 284 287 289 291 293 294 296 297 298 299 300 301 302 302 303 304 304 304 305 305 305 305 305 306 306 306 306 304 303 301 300 299 298 298 299 299 300 302 303 305 305 305 305
285 287 289 291 293 294 295 296 297 298 299 300 301 302 302 303 303 304 304 304 304 304 304 305 305 305 305 304 303 301 300 298 297 296 296 296 297 299 302 303 304 305 304 304
287 289 291 292 293 294 295 296 297 298 299 300 301 301 301 302 303 303 303 304 304 304 304 304 304 304 303 303 301 299 298 297 295 295 295 295 296 298 301 303 304 305 304 304
289 290 292 293 293 295 296 297 298 299 300 300 301 301 301 301 302 302 303 303 303 303 303 303 303 303 302 301 299 297 296 295 293 293 293 294 295 297 301 303 304 305 305 305